Погода в Боринском

Россия / Липецкая область     52°27′27″N   39°22′20″E
темп.,
°C
ветер,
м/с
пор.,
м/с
влажн.,
%
обл.,
%
осадки,
мм/ч
давл.,
гПа
погр.,
м
22 апреля, чт
чт2200:00+5ююз379383 0.1 1016289
03:00+4юз379583 0.1 1017237
06:00+3юз35945 0.0 1018122
09:00+8ююз46765 0.0 1019555
12:00+13юз565625 0.0 10191568
15:00+13юз5757100 0.1 10191431
18:00+13ю476592 0.1 1019476
21:00+9ю3778100 0.1 1020131
23 апреля, пт
пт2300:00+8ююз377971 0.0 1020111
03:00+7ю358093 0.0 102059
06:00+8ю368383 0.0 1020107
09:00+12ю476830 0.0 1019472
12:00+15ю6845100 0.1 10182408
15:00+16ю684764 0.1 10161743
18:00+14ю495984 0.0 1015384
21:00+12ююв51268100 0.0 1014343
24 апреля, сб
сб2400:00+10ю4107988 0.2 1012268
03:00+9ю71291100 1.5 1010882
06:00+5сз6995100 3.6 1011706
09:00+6зсз5776100 3.8 10111013
12:00+10з6855100 0.6 10111829
15:00+10з81146100 1.2 10102516
18:00+8з811525 0.0 10111705
21:00+5зюз51058100 0.0 1012515
25 апреля, вс
вс2500:00+2зюз7128189 0.0 1012659
03:00+3з814805 1.1 1014668
06:00+1з612865 0.0 1015476
09:00+5з711655 0.0 10161144
12:00+8з81245100 0.1 10162688
15:00+9зюз81139100 0.1 10162804
18:00+9юз6105016 0.1 10151395
21:00+6юз51163100 0.1 1016534
26 апреля, пн
пн2600:00+4зюз588776 0.8 1016693
03:00+2зюз34925 0.8 1017104
06:00+2юз249313 0.0 1017138
09:00+6зюз336865 0.1 10161066
12:00+7зюз3450100 0.1 10151617
15:00+9зюз4643100 0.1 10142057
18:00+8зюз575127 0.2 10131580
21:00+4зюз486869 0.2 1014177